Preview of NWS' New Version of Forecast
This preview is not operational and should not be used for support decisions.

Regional Weather Roundup (RWR)

Issued by National Weather Service (NWS)

                            
000
ASUS46 KSEW 161810
RWRWA 

WASHINGTON REGIONAL WEATHER ROUNDUP
NATIONAL WEATHER SERVICE SEATTLE WA
1100 AM PDT TUE JUL 16 2019

NOTE:"FAIR" INDICATES FEW OR NO CLOUDS BELOW 12,000 FEET WITH NO 
SIGNIFICANT WEATHER AND/OR OBSTRUCTIONS TO VISIBILITY.

WAZ507-509-555>559-161900-
SEATTLE, TACOMA, EVERETT, AND VICINITY
  
CITY           SKY/WX    TMP DP  RH WIND       PRES   REMARKS
EVERETT        MOSUNNY   69  57  65 VRB5      30.04S                  
6HR MIN TEMP:  58; 6HR MAX TEMP:  69;                                

BOEING FIELD   PTSUNNY   69  58  67 VRB5      30.02F                  
6HR MIN TEMP:  63; 6HR MAX TEMP:  70;                                

RENTON         CLOUDY    69  60  73 N8        30.02S                  
6HR MIN TEMP:  63; 6HR MAX TEMP:  70;                                

SEATAC AIRPORT PTSUNNY   67  59  75 NW7       30.04S                  
6HR MIN TEMP:  62; 6HR MAX TEMP:  69;                                

JBLM-MCCHORD   CLOUDY    69  64  86 NW5       30.03S                  
6HR MIN TEMP:  61; 6HR MAX TEMP:  69;                                

PUYALLUP       FAIR      73  59  60 VRB3      30.04S                  
BREMERTON      MOSUNNY   69  58  67 S5        30.03F                  
6HR MIN TEMP:  58; 6HR MAX TEMP:  69;                                

JBLM-FT LEWIS  PTSUNNY   69  65  85 W6        30.02F                  
6HR MIN TEMP:  61; 6HR MAX TEMP:  69; 6HR PCP:  0.02;                

TACOMA NARROWS PTSUNNY   65  59  81 CALM      30.03F                  
6HR MIN TEMP:  59; 6HR MAX TEMP:  66;                                

$$
 
WAZ001-503-506-510-514-515-161900-
NORTH INTERIOR
  
CITY           SKY/WX    TMP DP  RH WIND       PRES   REMARKS
BELLINGHAM     SUNNY     67  56  67 S8        30.02S                  
6HR MIN TEMP:  52; 6HR MAX TEMP:  67;                                

FRIDAY HARBOR  MOSUNNY   59  54  83 SE7       30.04S                  
6HR MIN TEMP:  51; 6HR MAX TEMP:  59;                                

EASTSOUND      SUNNY     63  57  82 CALM      30.01S                  
PORT ANGELES   CLOUDY    62  57  83 W8        30.04R                  
6HR MIN TEMP:  55; 6HR MAX TEMP:  62;                                

EDIZ HOOK      CLOUDY    58  55  88 NW9       30.04R FOG              
6HR MIN TEMP:  54; 6HR MAX TEMP:  59;                                

PORT TOWNSEND  PTSUNNY   64  57  77 SE6       30.03S                  
NAS WHIDBEY    PTSUNNY   63  55  75 W6        30.08R                  
6HR MIN TEMP:  57; 6HR MAX TEMP:  63; 6HR PCP: TRACE;                

ARLINGTON      MOSUNNY   71  57  61 NW8       30.02F                  
6HR MIN TEMP:  53; 6HR MAX TEMP:  71;                                

BURLINGTON     SUNNY     75  57  53 CALM      30.03S                  
$$
 
WAZ020-022-039-040-504-511-512-161900-
SOUTHWEST INTERIOR
  
CITY           SKY/WX    TMP DP  RH WIND       PRES   REMARKS
SHELTON        CLOUDY    68  59  73 SW3       30.01S                  
6HR MIN TEMP:  59; 6HR MAX TEMP:  69;                                

OLYMPIA        PTSUNNY   68  57  68 CALM      30.02F                  
6HR MIN TEMP:  59; 6HR MAX TEMP:  70;                                

CHEHALIS       FAIR      72  61  68 CALM      30.03S                  
KELSO          NOT AVBL                                               
VANCOUVER      CLOUDY    70  57  63 CALM      30.03S                  
6HR MIN TEMP:  64; 6HR MAX TEMP:  70;                                

SCAPPOOSE, OR  CLOUDY    70  59  68 W3        30.02S                  
6HR MIN TEMP:  61; 6HR MAX TEMP:  70;                                

PORTLAND, OR   PTSUNNY   72  58  61 N6        30.03F                  
6HR MIN TEMP:  65; 6HR MAX TEMP:  72;                                

$$
 
WAZ021-516-517-161900-
WASHINGTON COAST
  
CITY           SKY/WX    TMP DP  RH WIND       PRES   REMARKS
FORKS          CLOUDY    64  57  78 VRB3      30.04S                  
6HR MIN TEMP:  56; 6HR MAX TEMP:  64;                                

HOQUIAM        PTSUNNY   69  61  75 W10       30.04S                  
6HR MIN TEMP:  58; 6HR MAX TEMP:  69;                                

ASTORIA, OR    CLOUDY    66  60  81 VRB6      30.04S                  
6HR MIN TEMP:  61; 6HR MAX TEMP:  66; 6HR PCP:  0.07;                

$$
 
WAZ019-023-024-040-567>569-161900-
CASCADE MOUNTAINS AND COLUMBIA GORGE
  
CITY           SKY/WX    TMP DP  RH WIND       PRES   REMARKS
STAMPEDE PASS  CLOUDY    54  51  90 VRB5      30.08S                  
6HR MIN TEMP:  51; 6HR MAX TEMP:  55;                                

TROUTDALE, OR  PTSUNNY   71  59  65 VRB6      30.02F                  
6HR MIN TEMP:  66; 6HR MAX TEMP:  72;                                

HOOD RIVER, OR MOCLDY    73  55  53 W8        30.00S                  
THE DALLES, OR SUNNY     77  55  46 NW16      29.96F                  
6HR MIN TEMP:  62; 6HR MAX TEMP:  77;                                

$$

WAZ026-027-041>044-520-521-161900-
EAST SLOPES
  
CITY           SKY/WX    TMP DP  RH WIND       PRES   REMARKS
OMAK           MOSUNNY   73  52  47 VRB5      29.96F                  
6HR MIN TEMP:  60; 6HR MAX TEMP:  73; 6HR PCP:  0.02;                

WENATCHEE      MOSUNNY   73  47  39 VRB7      29.95F                  
6HR MIN TEMP:  60; 6HR MAX TEMP:  74;                                

ELLENSBURG     SUNNY     76  48  37 CALM      29.97F                  
6HR MIN TEMP:  57; 6HR MAX TEMP:  76;                                

YAKIMA         MOSUNNY   75  50  41 S5        29.97F                  
6HR MIN TEMP:  51; 6HR MAX TEMP:  76;                                

SUNNYSIDE ARPT CLEAR     75  53  46 W7        29.96                   
6HR MIN TEMP:  54; 6HR MAX TEMP:  76;                                

YAKIMA TC      FAIR      74  47  38 NW7       29.95F                  
6HR MIN TEMP:  54; 6HR MAX TEMP:  75;                                

$$

WAZ028-034-035-161900-
COLUMBIA BASIN
  
CITY           SKY/WX    TMP DP  RH WIND       PRES   REMARKS
EPHRATA        MOSUNNY   76  49  38 VRB3      29.94F                  
6HR MIN TEMP:  57; 6HR MAX TEMP:  77;                                

MOSES LAKE     MOSUNNY   76  51  41 SW9       29.96F                  
6HR MIN TEMP:  58; 6HR MAX TEMP:  76;                                

PASCO          MOSUNNY   79  51  37 SW6       29.95F                  
6HR MIN TEMP:  61; 6HR MAX TEMP:  80;                                

RICHLAND ARPT  PTCLDY    82  51  35 S8G16     29.94F                  
6HR MIN TEMP:  65; 6HR MAX TEMP:  82;                                

HERMISTON, OR  MOSUNNY   78  54  43 W10       29.96F                  
6HR MIN TEMP:  60; 6HR MAX TEMP:  78;                                

$$

WAZ036>038-161900-
NORTHEAST WASHINGTON
  
CITY           SKY/WX    TMP DP  RH WIND       PRES   REMARKS
SPOKANE GEIGER PTSUNNY   63  55  75 S7        30.02S                  
6HR MIN TEMP:  57; 6HR MAX TEMP:  63; 6HR PCP:  0.16;                

SPOKANE FELTS  PTSUNNY   63  58  83 NE3       30.02S                  
6HR MIN TEMP:  59; 6HR MAX TEMP:  63; 6HR PCP:  0.14;                

FAIRCHILD AFB  MOSUNNY   65  57  74 SE6       30.01F                  
6HR MIN TEMP:  56; 6HR MAX TEMP:  65; 6HR PCP:  0.05;                

COEURDALENE,ID LGT RAIN  62  56  80 W7        30.03F                  
6HR MIN TEMP:  57; 6HR MAX TEMP:  62; 6HR PCP: TRACE;                

DEER PARK      PTSUNNY   64  56  75 S6        30.02S                  
6HR MIN TEMP:  56; 6HR MAX TEMP:  64; 6HR PCP:  0.06;                

$$

WAZ029>033-161900-
SOUTHEAST WASHINGTON
  
CITY           SKY/WX    TMP DP  RH WIND       PRES   REMARKS
PULLMAN        PTSUNNY   69  51  52 VRB6      30.04S                  
6HR MIN TEMP:  53; 6HR MAX TEMP:  69;                                

LEWISTON, ID   MOSUNNY   75  53  46 CALM      29.98F                  
6HR MIN TEMP:  58; 6HR MAX TEMP:  76;                                

WALLA WALLA    MOSUNNY   76  51  41 SW12      29.97F                  
6HR MIN TEMP:  65; 6HR MAX TEMP:  76;                                

PENDLETON, OR  MOSUNNY   77  50  38 W13G22    29.98F                  
6HR MIN TEMP:  60; 6HR MAX TEMP:  77;                                

$$